Location: Stony Creek
(40.9500°S, 175.8500°E)
Time: 08:22:06
(UTC+00:00)

Daily predictions for brighter satellites

Satellite Brightness Start Highest point End
(mag) Time Altitude Azimuth Time Altitude Azimuth Time Altitude Azimuth
SL-16 R/B 4.1 16:20:20 20° SSE 16:20:20 20° SSE 16:22:00 10° SSE
ATLAS 5 CENTAUR R/B 2.7 16:33:24 47° ESE 16:33:24 47° ESE 16:37:12 10° NE
USA 281 3.9 16:29:42 10° SSE 16:36:09 52° ENE 16:42:32 10° N
IRS-1D 4.1 16:32:17 10° NNE 16:36:26 55° NE 16:36:26 55° NE
Cosmos 2369 Rocket 2.3 16:46:44 68° N 16:46:44 68° N 16:51:40 10° NNE
SL-8 Rocket 4.3 16:41:41 10° N 16:47:44 63° E 16:53:53 10° SSE
Cosmos 1346 Rocket 4.5 16:48:34 28° ESE 16:48:45 29° ESE 16:51:58 10° NE
Cosmos 1339 Rocket 4.4 16:50:18 71° WSW 16:50:33 72° W 16:56:55 10° N
SL-4 R/B 4.2 16:52:25 16° SE 16:52:25 16° SE 16:53:36 10° ESE
NOSS 3-1 (A) 3.5 16:49:48 47° S 16:51:19 65° SE 16:56:22 10° NE
COSMOS 2455 3.4 16:52:46 29° S 16:55:45 57° ESE 17:01:40 10° NE
Cosmos 1943 3.0 16:59:18 70° WNW 16:59:53 79° WSW 17:05:38 10° SSE
Cosmos 1378 Rocket 4.3 17:02:53 13° S 17:06:43 52° E 17:11:03 10° NNE
SJ 16-02 4.2 17:05:09 10° SSE 17:07:16 13° ESE 17:09:23 10° E
BREEZE-M DEB 3.5 17:08:58 46° WSW 17:10:53 85° NNW 17:14:07 10° NE
BREEZE M DEB (TANK) 2.9 17:12:41 47° WSW 17:14:22 82° NW 17:17:30 10° NE
Cosmos 1809 Rocket 4.4 17:12:17 10° S 17:18:29 86° E 17:24:36 10° N
SL-16 R/B 2.6 17:13:18 10° SSE 17:19:39 79° ENE 17:25:57 10° NNW
ISS -1.6 17:19:30 17° N 17:21:15 25° NE 17:24:10 10° ESE
Cosmos 2366 rocket 3.9 17:15:00 10° N 17:21:22 79° W 17:27:46 10° S
ARIANE 6 FM1 Upper Stage 3.5 17:19:42 31° S 17:21:31 50° SE 17:25:51 10° NE
NOSS 3-1 (C) 4.4 17:25:23 22° NW 17:25:23 22° NW 17:27:44 10° NNW
Aureole 3 3.4 17:26:59 46° N 17:26:59 46° N 17:29:23 10° N
Cosmos 2297 4.0 17:25:50 42° W 17:26:29 44° WNW 17:31:50 10° N
Cosmos 1603 3.8 17:22:00 10° NNW 17:27:40 79° ENE 17:33:22 10° SSE
Meteor 2-14 Rocket 4.3 17:25:51 10° S 17:31:59 77° W 17:38:03 10° N
RUBIN 8/PSLV 4.5 17:27:52 10° N 17:32:12 68° WNW 17:34:59 22° SSW
IGS 5A 4.2 17:30:33 10° N 17:33:09 33° NW 17:33:09 33° NW
Cosmos 1733 Rocket 3.5 17:35:33 40° SW 17:35:33 40° SW 17:39:00 10° S
Meteor 2-21 4.4 17:28:44 10° S 17:34:53 84° E 17:40:58 10° N
Cosmos 1908 Rocket 4.4 17:32:47 10° N 17:37:08 52° E 17:41:31 10° SSE
Cosmos 1140 Rocket 3.4 17:37:35 14° SSW 17:42:09 76° WNW 17:47:22 10° NNE
Cosmos 2285 Rocket 4.4 17:38:55 18° NW 17:43:21 41° WSW 17:49:28 10° S
Landsat 7 3.7 17:38:48 10° N 17:43:29 81° WNW 17:48:14 10° SSW
Cosmos 1821 Rocket 3.8 17:41:37 10° NNW 17:47:42 74° W 17:53:54 10° S
Cosmos 1727 Rocket 4.2 17:45:17 10° S 17:51:40 76° E 17:58:02 10° NNE
Cosmos 1900 4.4 17:51:03 10° NNW 17:56:02 82° ENE 18:01:09 10° SSE
Cosmos 1025 Rocket 2.9 17:53:19 10° SSW 17:57:38 73° W 18:01:52 10° N
MOS 1 Rocket 4.0 17:54:09 10° NNW 17:58:00 29° W 18:00:11 20° SW
Meteor 1-28 Rocket 2.7 17:55:43 10° S 17:59:04 71° WSW 18:02:19 10° NNW
SPOT 1/Viking Rocket 4.0 17:54:02 10° NNE 17:59:10 66° ESE 18:04:24 10° S
BREEZE M DEB (TANK) 3.3 17:56:18 10° NW 18:00:53 39° NNE 18:03:12 10° ESE
SL-16 R/B 4.1 18:02:13 12° SW 18:02:13 12° SW 18:03:35 10° SSW
Cosmos 1315 Rocket 3.1 17:58:08 10° N 18:01:56 66° E 18:05:47 10° SSE
USA 215 4.3 17:56:16 10° E 18:02:16 39° SSE 18:08:17 10° SW
Cosmos 921 Rocket 3.0 18:00:49 10° SSW 18:05:15 70° WNW 18:09:40 10° N
Cosmos 304 Rocket 3.8 18:00:27 10° SSW 18:05:17 85° ESE 18:10:01 10° NNE
USA 276 2.3 18:04:01 27° SW 18:05:20 55° SSE 18:08:16 10° ENE
Cosmos 1484 Rocket 2.6 18:02:01 10° N 18:05:24 50° W 18:08:50 10° SSW
ATLAS 2AS CENTAUR R/B 2.9 17:59:45 10° NNW 18:06:52 85° ENE 18:14:14 10° SE
CORIOLIS 4.3 18:03:07 10° N 18:08:26 56° W 18:13:47 10° SSW
Thor Agena Rocket 3.9 18:03:39 10° NNE 18:08:53 70° ESE 18:14:13 10° S
Meteor 2-8 Rocket 4.4 18:05:23 10° NNW 18:11:33 74° W 18:17:48 10° S
UNK 3.7 18:09:33 10° S 18:14:13 70° WSW 18:18:48 10° NNW
ATLAS 5 CENTAUR R/B 3.0 18:12:32 17° W 18:14:17 21° WNW 18:17:35 10° NNW
Cosmos 405 Rocket 2.0 18:11:58 10° SSW 18:15:01 66° W 18:17:59 10° N
Cosmos 1867 3.5 18:11:25 10° NNW 18:16:50 85° WSW 18:22:17 10° SSE
CZ-4C R/B 4.4 18:08:32 10° N 18:17:07 47° ENE 18:24:34 10° SE
Cosmos 371 Rocket 3.2 18:13:16 10° SSW 18:18:07 82° WNW 18:22:54 10° NNE
USA 281 3.9 18:14:37 10° S 18:20:20 32° SW 18:26:02 10° WNW
Cosmos 1346 Rocket 4.2 18:22:54 15° WSW 18:23:34 16° W 18:25:51 10° NW
USA 32 4.4 18:18:49 10° NNW 18:23:45 41° W 18:28:46 10° S
Cosmos 1934 Rocket 4.3 18:18:43 10° N 18:25:01 78° E 18:31:28 10° S
Cosmos 1818 4.1 18:20:24 11° SW 18:25:09 39° WNW 18:30:06 10° N
Cosmos 2084 4.2 18:23:52 10° WNW 18:27:29 29° SW 18:31:10 10° SSE
ATLAS 3B R/B 3.9 18:22:51 10° SSW 18:28:37 35° SE 18:34:37 10° ENE
SL-4 R/B 1.4 18:25:52 13° SW 18:28:45 89° NNW 18:31:57 10° NE
CZ-2D R/B 2.7 18:25:47 10° NNE 18:28:45 80° ESE 18:31:46 10° S
SJ-12 3.7 18:25:03 10° NNE 18:28:50 84° WNW 18:32:41 10° SSW
Cosmos 2369 Rocket 4.0 18:28:35 10° W 18:28:59 10° W 18:29:48 10° WNW
COSMO-SKYMED 1 3.6 18:34:06 10° SSE 18:38:11 50° E 18:42:11 10° N
BREEZE-M DEB (TANK) 4.0 18:31:33 10° W 18:38:36 34° SSW 18:41:25 10° SE
Resurs 1-3 3.6 18:34:56 10° NNE 18:39:16 87° W 18:43:40 10° SSW
ARIANE 5 R/B 2.5 18:35:36 10° N 18:40:34 64° WNW 18:45:36 10° SSW
COSMOS 2455 4.0 18:36:34 10° SW 18:41:13 23° WNW 18:45:50 10° NNW
SMAP 4.2 18:38:38 10° NNW 18:42:28 25° W 18:46:21 10° SW
SL-06 R/B(2) 3.5 18:43:23 10° NNW 18:45:01 65° ENE 18:49:56 10° SE
Resurs 01 Rocket 2.7 18:41:23 10° NE 18:45:40 47° ESE 18:49:59 10° S
SJ 16-02 1.4 18:41:27 10° SSW 18:45:46 61° WNW 18:50:01 10° N
Cosmos 1190 Rocket 4.1 18:43:43 10° SSW 18:49:02 86° ESE 18:54:20 10° NNE
Cosmos 1980 Rocket 4.3 18:47:15 10° S 18:51:33 22° SE 18:55:50 10° ENE
